Change the Weather History Date:

Thursday, October 11, 2012

  Actual Average Record
Temperature  
Mean Temperature 47 °F 52 °F  
Max Temperature 56 °F 61 °F 82 °F (1949)
Min Temperature 37 °F 44 °F 29 °F (1964)
Degree Days  
Heating Degree Days 18 13  
Month to date heating degree days 127 121  
Since 1 July heating degree days 252 283  
Cooling Degree Days 0 0  
Month to date cooling degree days 1 0  
Year to date cooling degree days 872 540  
Moisture  
Dew Point 31 °F    
Average Humidity 56    
Maximum Humidity 70    
Minimum Humidity 41    
Precipitation  
Precipitation 0.01 in 0.12 in 2.03 in (1877)
Month to date precipitation 1.32 1.36  
Year to date precipitation 22.45 30.42  
Snow  
Snow 0.00 in 0.00 in 1.00 in (1906)
Month to date snowfall 0.0 0.2  
Since 1 July snowfall 0.0 0.2  
Since 1 September snowfall 0.0 0.2  
Snow Depth 0.00 in    
Sea Level Pressure  
Sea Level Pressure 30.10 in    
Wind  
Wind Speed 15 mph (WSW)    
Max Wind Speed 28 mph    
Max Gust Speed 39 mph    
Visibility 10 miles    
Events      
T = Trace of Precipitation, MM = Missing Value Source: NWS Daily Summary

Daily Weather History Graph

Daily Weather History Graph

Search for Another Location

Airport or City:

Trip Planner

Search our weather history database for the weather conditions in past years. The results will help you decide how hot, cold, wet, or windy it might be!

Date:

Astronomy

Oct. 11, 2012 Rise Set
Actual Time 7:24 AM EDT 6:38 PM EDT
Civil Twilight 6:55 AM EDT 7:06 PM EDT
Nautical Twilight 6:22 AM EDT 7:39 PM EDT
Astronomical Twilight 5:50 AM EDT 8:12 PM EDT
Moon 2:54 AM EDT (10/11) 4:18 PM EDT (10/11)
Length of Visible Light 12h 10m
Length of Day
11h 13m
Waning Crescent, 18% of the Moon is Illuminated
Oct 11
Waning Crescent
Oct 15
New
Oct 21
First Quarter
Oct 29
Full
Nov 6
Last Quarter

Hourly Weather History & Observations

Time (EDT) Temp. Windchill Dew Point Humidity Pressure Visibility Wind Dir Wind Speed Gust Speed Precip Events Conditions
12:54 AM 43.0 °F 35.4 °F 27.0 °F 53% 30.06 in 10.0 mi West 16.1 mph 24.2 mph N/A   Mostly Cloudy
1:54 AM 42.1 °F 34.9 °F 27.0 °F 55% 30.08 in 10.0 mi WSW 13.8 mph - N/A   Mostly Cloudy
2:54 AM 42.1 °F 35.2 °F 28.9 °F 60% 30.09 in 10.0 mi West 12.7 mph - N/A   Mostly Cloudy
3:54 AM 39.9 °F 32.9 °F 28.9 °F 65% 30.10 in 10.0 mi West 11.5 mph - N/A   Scattered Clouds
4:54 AM 39.9 °F 32.9 °F 28.9 °F 65% 30.12 in 10.0 mi WNW 11.5 mph - N/A   Partly Cloudy
5:54 AM 39.0 °F 33.4 °F 30.0 °F 70% 30.13 in 10.0 mi West 8.1 mph - N/A   Partly Cloudy
6:54 AM 37.0 °F 29.8 °F 28.9 °F 73% 30.16 in 10.0 mi West 10.4 mph - N/A   Scattered Clouds
7:54 AM 37.9 °F 31.5 °F 28.0 °F 68% 30.17 in 10.0 mi West 9.2 mph - N/A   Scattered Clouds
8:54 AM 42.1 °F 34.9 °F 28.0 °F 58% 30.19 in 10.0 mi West 13.8 mph 19.6 mph N/A   Scattered Clouds
9:54 AM 46.0 °F 40.2 °F 28.0 °F 50% 30.20 in 10.0 mi WSW 12.7 mph 21.9 mph N/A   Scattered Clouds
10:54 AM 46.9 °F - 27.0 °F 46% 30.19 in 10.0 mi West 13.8 mph 21.9 mph N/A   Scattered Clouds
11:54 AM 48.9 °F - 27.0 °F 43% 30.19 in 10.0 mi WSW 18.4 mph 26.5 mph N/A   Mostly Cloudy
12:54 PM 50.0 °F - 32.0 °F 50% 30.15 in 10.0 mi WSW 20.7 mph 27.6 mph N/A   Mostly Cloudy
1:54 PM 50.0 °F - 35.1 °F 57% 30.11 in 10.0 mi SW 23.0 mph 31.1 mph N/A   Mostly Cloudy
2:54 PM 51.1 °F - 35.1 °F 54% 30.09 in 10.0 mi SW 21.9 mph 33.4 mph N/A   Mostly Cloudy
3:54 PM 54.0 °F - 34.0 °F 47% 30.06 in 10.0 mi SW 18.4 mph 31.1 mph N/A   Mostly Cloudy
4:54 PM 55.0 °F - 34.0 °F 45% 30.04 in 10.0 mi SW 20.7 mph 27.6 mph N/A   Mostly Cloudy
5:54 PM 53.6 °F - 33.8 °F 47% 30.01 in 10.0 mi SW 16.1 mph 26.5 mph N/A   Mostly Cloudy
6:54 PM 54.0 °F - 30.9 °F 41% 30.02 in 10.0 mi SW 19.6 mph 26.5 mph N/A   Scattered Clouds
7:54 PM 54.0 °F - 30.9 °F 41% 30.02 in 10.0 mi SSW 15.0 mph 25.3 mph N/A   Mostly Cloudy
8:54 PM 53.1 °F - 33.1 °F 47% 30.04 in 10.0 mi SW 12.7 mph 21.9 mph N/A   Mostly Cloudy
9:54 PM 54.0 °F - 34.0 °F 47% 30.03 in 10.0 mi SW 16.1 mph - N/A   Overcast
10:54 PM 55.0 °F - 36.0 °F 49% 30.02 in 10.0 mi SW 20.7 mph 33.4 mph N/A   Overcast
11:54 PM 54.0 °F - 36.0 °F 51% 30.04 in 10.0 mi WNW 16.1 mph 20.7 mph N/A   Overcast